TimeMST,TemperatureF,Dew PointF,Humidity,Sea Level PressureIn,VisibilityMPH,Wind Direction,Wind SpeedMPH,Gust SpeedMPH,PrecipitationIn,Events,Conditions,WindDirDegrees,DateUTC
12:15 AM,26.4,14.0,59,30.15,10.0,Calm,Calm,-,N/A,,Clear,0,2013-03-05 07:15:00
12:35 AM,24.1,14.2,66,30.16,10.0,Calm,Calm,-,N/A,,Clear,0,2013-03-05 07:35:00
12:55 AM,23.2,14.0,68,30.16,10.0,Calm,Calm,-,N/A,,Clear,0,2013-03-05 07:55:00
1:15 AM,21.2,14.4,75,30.18,10.0,Calm,Calm,-,N/A,,Clear,0,2013-03-05 08:15:00
1:35 AM,20.8,14.7,77,30.19,10.0,Calm,Calm,-,N/A,,Clear,0,2013-03-05 08:35:00
1:55 AM,17.6,12.2,79,30.20,10.0,Calm,Calm,-,N/A,,Clear,0,2013-03-05 08:55:00
2:15 AM,21.0,11.3,66,30.20,10.0,Calm,Calm,-,N/A,,Clear,0,2013-03-05 09:15:00
2:35 AM,18.3,11.8,76,30.21,10.0,Calm,Calm,-,N/A,,Clear,0,2013-03-05 09:35:00
2:55 AM,20.5,9.5,63,30.21,10.0,Calm,Calm,-,N/A,,Clear,0,2013-03-05 09:55:00
3:15 AM,19.0,11.3,72,30.22,10.0,Calm,Calm,-,N/A,,Clear,0,2013-03-05 10:15:00
3:35 AM,16.5,10.8,78,30.23,10.0,Calm,Calm,-,N/A,,Clear,0,2013-03-05 10:35:00
3:55 AM,16.7,10.4,76,30.24,10.0,Calm,Calm,-,N/A,,Clear,0,2013-03-05 10:55:00
4:15 AM,14.7,8.8,77,30.24,10.0,Calm,Calm,-,N/A,,Clear,0,2013-03-05 11:15:00
4:35 AM,18.0,8.8,67,30.25,10.0,Calm,Calm,-,N/A,,Clear,0,2013-03-05 11:35:00
4:55 AM,14.9,9.5,79,30.27,10.0,Calm,Calm,-,N/A,,Clear,0,2013-03-05 11:55:00
5:15 AM,15.4,9.5,77,30.27,10.0,Calm,Calm,-,N/A,,Clear,0,2013-03-05 12:15:00
6:15 AM,14.4,6.1,70,30.29,10.0,Calm,Calm,-,N/A,,Clear,0,2013-03-05 13:15:00
6:35 AM,13.3,7.7,78,30.29,10.0,Calm,Calm,-,N/A,,Clear,0,2013-03-05 13:35:00
6:55 AM,15.6,8.1,72,30.29,10.0,Calm,Calm,-,N/A,,Clear,0,2013-03-05 13:55:00
7:15 AM,17.1,7.2,65,30.29,10.0,Calm,Calm,-,N/A,,Clear,0,2013-03-05 14:15:00
7:35 AM,16.2,6.6,66,30.30,10.0,Calm,Calm,-,N/A,,Clear,0,2013-03-05 14:35:00
7:55 AM,20.8,7.3,56,30.30,10.0,Calm,Calm,-,N/A,,Clear,0,2013-03-05 14:55:00
8:15 AM,22.5,7.3,52,30.31,10.0,Calm,Calm,-,N/A,,Clear,0,2013-03-05 15:15:00
8:35 AM,25.3,8.1,48,30.32,10.0,Calm,Calm,-,N/A,,Clear,0,2013-03-05 15:35:00
8:55 AM,26.4,7.7,45,30.31,10.0,WSW,3.5,-,N/A,,Clear,240,2013-03-05 15:55:00
9:15 AM,28.9,8.6,42,30.31,10.0,Calm,Calm,-,N/A,,Clear,0,2013-03-05 16:15:00
9:35 AM,31.3,9.9,41,30.31,10.0,Calm,Calm,-,N/A,,Clear,0,2013-03-05 16:35:00
9:55 AM,33.3,8.4,35,30.30,10.0,SSW,4.6,-,N/A,,Clear,210,2013-03-05 16:55:00
10:15 AM,34.0,11.5,39,30.30,10.0,WSW,3.5,-,N/A,,Clear,250,2013-03-05 17:15:00
10:35 AM,36.5,10.4,34,30.31,10.0,SSW,4.6,-,N/A,,Clear,210,2013-03-05 17:35:00
10:55 AM,37.2,9.0,31,30.30,10.0,Calm,Calm,-,N/A,,Clear,0,2013-03-05 17:55:00
11:15 AM,38.3,7.2,28,30.29,10.0,Calm,Calm,-,N/A,,Clear,0,2013-03-05 18:15:00
11:35 AM,39.6,4.6,23,30.29,10.0,SW,4.6,-,N/A,,Clear,230,2013-03-05 18:35:00
11:55 AM,40.5,2.1,20,30.28,10.0,SSW,4.6,-,N/A,,Clear,200,2013-03-05 18:55:00
12:15 PM,41.0,0.1,18,30.28,10.0,Calm,Calm,-,N/A,,Clear,0,2013-03-05 19:15:00
12:35 PM,41.5,-1.5,16,30.27,10.0,Calm,Calm,-,N/A,,Clear,0,2013-03-05 19:35:00
12:55 PM,43.3,3.0,19,30.27,10.0,Calm,Calm,-,N/A,,Clear,0,2013-03-05 19:55:00
1:15 PM,44.2,4.5,19,30.27,10.0,SW,5.8,-,N/A,,Clear,220,2013-03-05 20:15:00
1:35 PM,43.9,3.9,19,30.26,10.0,Calm,Calm,-,N/A,,Clear,0,2013-03-05 20:35:00
1:55 PM,45.7,4.8,19,30.26,10.0,Calm,Calm,-,N/A,,Clear,0,2013-03-05 20:55:00
2:15 PM,46.4,4.3,18,30.25,10.0,South,3.5,-,N/A,,Clear,180,2013-03-05 21:15:00
2:35 PM,46.9,2.3,16,30.24,10.0,South,3.5,-,N/A,,Clear,190,2013-03-05 21:35:00
2:55 PM,47.3,2.5,16,30.24,10.0,South,4.6,-,N/A,,Clear,180,2013-03-05 21:55:00
3:15 PM,47.7,4.1,17,30.24,10.0,SSW,3.5,-,N/A,,Clear,200,2013-03-05 22:15:00
3:35 PM,47.8,3.0,16,30.24,10.0,SSW,4.6,-,N/A,,Clear,200,2013-03-05 22:35:00
3:55 PM,47.8,0.5,14,30.23,10.0,SW,3.5,-,N/A,,Clear,230,2013-03-05 22:55:00
4:15 PM,48.2,-3.5,12,30.23,10.0,SW,4.6,-,N/A,,Clear,230,2013-03-05 23:15:00
4:35 PM,46.6,-3.6,12,30.22,10.0,Calm,Calm,-,N/A,,Clear,0,2013-03-05 23:35:00
4:55 PM,46.4,-2.9,13,30.22,10.0,Calm,Calm,-,N/A,,Clear,0,2013-03-05 23:55:00
5:15 PM,45.7,-4.7,12,30.22,10.0,Calm,Calm,-,N/A,,Clear,0,2013-03-06 00:15:00
5:35 PM,36.7,12.6,37,30.22,10.0,Calm,Calm,-,N/A,,Clear,0,2013-03-06 00:35:00
5:55 PM,34.5,11.3,38,30.22,10.0,Calm,Calm,-,N/A,,Clear,0,2013-03-06 00:55:00
6:15 PM,34.3,6.3,31,30.23,10.0,Calm,Calm,-,N/A,,Clear,0,2013-03-06 01:15:00
6:35 PM,32.9,2.1,27,30.23,10.0,Calm,Calm,-,N/A,,Clear,0,2013-03-06 01:35:00
6:55 PM,31.6,0.9,27,30.24,10.0,Calm,Calm,-,N/A,,Clear,0,2013-03-06 01:55:00
7:15 PM,30.9,6.8,36,30.24,10.0,Calm,Calm,-,N/A,,Clear,0,2013-03-06 02:15:00
7:35 PM,28.6,6.1,39,30.24,10.0,NE,4.6,-,N/A,,Clear,50,2013-03-06 02:35:00
7:55 PM,29.3,6.6,38,30.24,10.0,NNE,4.6,-,N/A,,Clear,30,2013-03-06 02:55:00
8:15 PM,29.3,5.5,37,30.24,10.0,ENE,3.5,-,N/A,,Clear,70,2013-03-06 03:15:00
8:35 PM,27.7,7.7,43,30.24,10.0,Calm,Calm,-,N/A,,Clear,0,2013-03-06 03:35:00
8:55 PM,27.5,5.0,38,30.25,10.0,Calm,Calm,-,N/A,,Clear,0,2013-03-06 03:55:00
9:15 PM,24.6,7.0,47,30.26,10.0,Calm,Calm,-,N/A,,Clear,0,2013-03-06 04:15:00
9:35 PM,25.0,7.7,48,30.26,10.0,Calm,Calm,-,N/A,,Clear,0,2013-03-06 04:35:00
9:55 PM,24.3,8.4,51,30.26,10.0,Calm,Calm,-,N/A,,Clear,0,2013-03-06 04:55:00
10:15 PM,24.4,8.8,51,30.26,10.0,Calm,Calm,-,N/A,,Clear,0,2013-03-06 05:15:00
10:35 PM,23.5,8.4,53,30.26,10.0,Calm,Calm,-,N/A,,Clear,0,2013-03-06 05:35:00
10:55 PM,27.1,6.6,42,30.26,10.0,Calm,Calm,-,N/A,,Clear,0,2013-03-06 05:55:00
11:15 PM,23.9,9.5,54,30.26,10.0,Calm,Calm,-,N/A,,Clear,0,2013-03-06 06:15:00
11:35 PM,26.4,9.1,48,30.25,10.0,Calm,Calm,-,N/A,,Clear,0,2013-03-06 06:35:00
11:55 PM,23.5,8.2,52,30.25,10.0,Calm,Calm,-,N/A,,Clear,0,2013-03-06 06:55:00